| time (UTC) | temp F | wind direction | speed knots | gust knots | rain 1hr in | rain 24hr in | rain mn in | humidity % | barometer mb |
| 20260901140044 | 70 | 321 | 0.0 | 0.0 | 0.00 | 0.23 | 0.00 | 87 | 1010.6 |
| 20260901134527 | 68 | 321 | 0.0 | 0.0 | 0.00 | 0.23 | 0.00 | 90 | 1010.4 |
| 20260901133027 | 67 | 321 | 0.0 | 0.0 | 0.00 | 0.23 | 0.00 | 91 | 1010.5 |
| 20260901131534 | 67 | 321 | 0.0 | 0.0 | 0.00 | 0.23 | 0.00 | 90 | 1010.1 |
| 20260901130022 | 67 | 321 | 0.0 | 0.0 | 0.00 | 0.23 | 0.00 | 89 | 1009.8 |
| 20260901124521 | 67 | 321 | 0.0 | 0.0 | 0.00 | 0.25 | 0.00 | 88 | 1009.7 |
| 20260901123018 | 67 | 321 | 0.0 | 0.0 | 0.00 | 0.25 | 0.00 | 89 | 1009.4 |
| 20260901121518 | 67 | 321 | 0.0 | 0.0 | 0.00 | 0.25 | 0.00 | 88 | 1009.2 |
| 20260901120019 | 68 | 321 | 0.0 | 0.0 | 0.00 | 0.25 | 0.00 | 88 | 1009.2 |
| 20260901114514 | 67 | 321 | 0.0 | 0.0 | 0.00 | 0.25 | 0.00 | 89 | 1009.1 |
| 20260901113014 | 67 | 321 | 0.0 | 0.0 | 0.00 | 0.25 | 0.00 | 89 | 1009.3 |
| 20260901111516 | 68 | 321 | 0.0 | 0.0 | 0.00 | 0.25 | 0.00 | 89 | 1009.2 |
| 20260901110012 | 68 | 321 | 0.0 | 0.0 | 0.00 | 0.25 | 0.00 | 88 | 1009.2 |
| 20260901104509 | 68 | 321 | 0.0 | 0.0 | 0.00 | 0.25 | 0.00 | 86 | 1009.2 |
| 20260901103008 | 69 | 321 | 0.0 | 0.0 | 0.00 | 0.25 | 0.00 | 86 | 1009.0 |
| 20260901101514 | 68 | 321 | 0.0 | 0.0 | 0.00 | 0.25 | 0.00 | 88 | 1008.8 |
| 20260901100005 | 69 | 321 | 0.0 | 0.0 | 0.00 | 0.25 | 0.00 | 86 | 1008.8 |
| 20260901094503 | 69 | 321 | 0.0 | 0.0 | 0.00 | 0.25 | 0.00 | 86 | 1008.8 |
| 20260901093002 | 69 | 321 | 0.0 | 0.0 | 0.00 | 0.25 | 0.00 | 86 | 1008.8 |
| 20260901091601 | 70 | 321 | 0.0 | 0.0 | 0.00 | 0.25 | 0.00 | 85 | 1008.7 |
| 20260901090108 | 69 | 321 | 0.0 | 1.7 | 0.00 | 0.25 | 0.00 | 85 | 1008.8 |
| 20260901084600 | 69 | 321 | 0.0 | 0.0 | 0.00 | 0.25 | 0.00 | 86 | 1008.8 |
| 20260901083059 | 70 | 321 | 0.0 | 1.7 | 0.00 | 0.25 | 0.00 | 87 | 1008.8 |
| 20260901081602 | 69 | 321 | 0.0 | 0.0 | 0.00 | 0.25 | 0.00 | 86 | 1008.8 |
| 20260901080150 | 70 | 321 | 0.0 | 0.0 | 0.00 | 0.25 | 0.00 | 85 | 1008.7 |
| 20260901074554 | 70 | 321 | 0.0 | 0.0 | 0.00 | 0.25 | 0.00 | 83 | 1008.7 |
| 20260901073053 | 70 | 321 | 0.0 | 0.0 | 0.00 | 0.25 | 0.00 | 83 | 1008.8 |
| 20260901071550 | 71 | 321 | 0.0 | 0.0 | 0.00 | 0.25 | 0.00 | 82 | 1008.8 |
| 20260901070053 | 71 | 321 | 0.0 | 0.0 | 0.00 | 0.25 | 0.00 | 82 | 1008.9 |
| 20260901064554 | 72 | 110 | 0.0 | 0.0 | 0.00 | 0.25 | 0.25 | 80 | 1008.8 |
| 20260901063056 | 72 | 110 | 0.0 | 0.0 | 0.00 | 0.25 | 0.25 | 78 | 1008.9 |
| 20260901061600 | 74 | 110 | 0.0 | 0.0 | 0.00 | 0.25 | 0.25 | 74 | 1008.9 |
| 20260901060045 | 76 | 267 | 0.0 | 3.5 | 0.00 | 0.25 | 0.25 | 65 | 1008.8 |
| 20260901054550 | 75 | 326 | 0.9 | 3.5 | 0.00 | 0.25 | 0.25 | 69 | 1008.6 |
| 20260901053044 | 74 | 314 | 0.9 | 2.6 | 0.00 | 0.25 | 0.25 | 74 | 1008.5 |
| 20260901051543 | 74 | 309 | 0.0 | 0.0 | 0.00 | 0.25 | 0.25 | 75 | 1008.7 |
| 20260901050043 | 74 | 293 | 0.0 | 1.7 | 0.00 | 0.25 | 0.25 | 74 | 1008.7 |
| 20260901044558 | 74 | 324 | 0.9 | 3.5 | 0.00 | 0.25 | 0.25 | 76 | 1008.9 |
| 20260901043042 | 73 | 314 | 0.0 | 0.0 | 0.00 | 0.25 | 0.25 | 77 | 1008.9 |
| 20260901041540 | 73 | 314 | 0.0 | 0.0 | 0.00 | 0.25 | 0.25 | 74 | 1008.9 |
| 20260901040053 | 74 | 314 | 0.0 | 0.0 | 0.00 | 0.25 | 0.25 | 75 | 1008.7 |
| 20260901034540 | 74 | 314 | 0.0 | 0.0 | 0.00 | 0.25 | 0.25 | 77 | 1008.5 |
| 20260901033039 | 74 | 298 | 0.0 | 0.0 | 0.00 | 0.25 | 0.25 | 80 | 1008.4 |
| 20260901031537 | 73 | 298 | 0.0 | 0.0 | 0.00 | 0.25 | 0.25 | 78 | 1008.3 |
| 20260901030039 | 74 | 298 | 0.0 | 0.0 | 0.00 | 0.25 | 0.25 | 78 | 1007.9 |
| 20260901024547 | 74 | 298 | 0.0 | 0.0 | 0.00 | 0.25 | 0.25 | 76 | 1007.6 |
| 20260901023038 | 75 | 298 | 0.0 | 0.0 | 0.00 | 0.25 | 0.25 | 75 | 1007.3 |
| 20260901021545 | 75 | 298 | 0.0 | 0.0 | 0.00 | 0.25 | 0.25 | 75 | 1007.2 |
| 20260901020038 | 74 | 298 | 0.0 | 0.0 | 0.00 | 0.25 | 0.25 | 76 | 1006.9 |
| 20260901014538 | 76 | 298 | 0.0 | 0.0 | 0.00 | 0.25 | 0.25 | 71 | 1006.5 |
| 20260901013035 | 76 | 298 | 0.0 | 0.0 | 0.00 | 0.25 | 0.25 | 69 | 1006.4 |
| 20260901011533 | 77 | 298 | 0.0 | 0.0 | 0.00 | 0.25 | 0.25 | 66 | 1006.3 |
| 20260901010037 | 77 | 300 | 0.0 | 0.9 | 0.00 | 0.25 | 0.25 | 67 | 1006.0 |
| 20260901004532 | 78 | 302 | 0.0 | 0.0 | 0.00 | 0.25 | 0.25 | 66 | 1006.0 |
| 20260901003034 | 78 | 310 | 0.0 | 3.5 | 0.00 | 0.25 | 0.25 | 67 | 1005.9 |
| 20260901001537 | 78 | 320 | 0.9 | 4.3 | 0.00 | 0.25 | 0.25 | 64 | 1005.8 |
| 20260901000030 | 79 | 311 | 1.7 | 3.5 | 0.00 | 0.25 | 0.25 | 62 | 1006.0 |
| 20260831234533 | 79 | 321 | 1.7 | 3.5 | 0.00 | 0.25 | 0.25 | 62 | 1006.0 |
| 20260831233030 | 79 | 281 | 1.7 | 5.2 | 0.00 | 0.25 | 0.25 | 63 | 1006.0 |
| 20260831231633 | 79 | 305 | 1.7 | 5.2 | 0.00 | 0.25 | 0.25 | 66 | 1005.9 |
| 20260831230032 | 79 | 109 | 0.0 | 0.9 | 0.00 | 0.25 | 0.25 | 65 | 1006.1 |
| 20260831224546 | 77 | 117 | 0.0 | 5.2 | 0.00 | 0.25 | 0.25 | 69 | 1006.3 |
| 20260831223027 | 76 | 112 | 2.6 | 6.1 | 0.00 | 0.25 | 0.25 | 70 | 1006.4 |
| 20260831221529 | 76 | 115 | 0.0 | 1.7 | 0.00 | 0.25 | 0.25 | 77 | 1006.6 |
| 20260831220025 | 74 | 104 | 0.0 | 1.7 | 0.01 | 0.25 | 0.25 | 82 | 1007.0 |
| 20260831214532 | 72 | 96 | 0.0 | 1.7 | 0.02 | 0.25 | 0.25 | 85 | 1007.3 |
| 20260831213024 | 70 | 238 | 0.9 | 5.2 | 0.04 | 0.25 | 0.25 | 86 | 1007.9 |
| 20260831211523 | 70 | 330 | 0.9 | 2.6 | 0.07 | 0.25 | 0.25 | 83 | 1007.6 |
| 20260831210022 | 71 | 109 | 0.0 | 1.7 | 0.10 | 0.24 | 0.24 | 89 | 1008.8 |
| 20260831204522 | 70 | 100 | 2.6 | 5.2 | 0.14 | 0.23 | 0.23 | 90 | 1009.4 |
| 20260831203032 | 69 | 115 | 0.9 | 5.2 | 0.13 | 0.21 | 0.21 | 91 | 1010.3 |
| 20260831201521 | 69 | 110 | 2.6 | 6.1 | 0.10 | 0.18 | 0.18 | 90 | 1010.5 |
| 20260831200022 | 70 | 98 | 0.9 | 1.7 | 0.06 | 0.13 | 0.13 | 89 | 1011.1 |
| 20260831194519 | 70 | 108 | 0.0 | 3.5 | 0.07 | 0.09 | 0.09 | 87 | 1011.4 |
| 20260831193019 | 71 | 108 | 0.9 | 2.6 | 0.06 | 0.08 | 0.08 | 87 | 1011.3 |
| 20260831191534 | 71 | 302 | 0.0 | 0.9 | 0.06 | 0.08 | 0.08 | 87 | 1010.9 |
| 20260831190014 | 72 | 99 | 0.0 | 2.6 | 0.05 | 0.07 | 0.07 | 83 | 1010.9 |
| 20260831184514 | 72 | 314 | 0.0 | 5.2 | 0.00 | 0.02 | 0.02 | 79 | 1010.7 |
| 20260831183025 | 74 | 323 | 2.6 | 10.4 | 0.00 | 0.02 | 0.02 | 71 | 1010.6 |
| 20260831181508 | 77 | 119 | 3.5 | 7.0 | 0.00 | 0.02 | 0.02 | 64 | 1009.4 |
| 20260831180009 | 77 | 341 | 0.0 | 3.5 | 0.00 | 0.02 | 0.02 | 64 | 1009.2 |
| 20260831174507 | 76 | 281 | 2.6 | 9.6 | 0.00 | 0.02 | 0.02 | 66 | 1009.2 |
| 20260831173006 | 75 | 341 | 1.7 | 6.1 | 0.00 | 0.02 | 0.02 | 69 | 1009.1 |
| 20260831171504 | 76 | 307 | 2.6 | 7.8 | 0.00 | 0.02 | 0.02 | 66 | 1009.0 |
| 20260831170004 | 76 | 290 | 3.5 | 11.3 | 0.00 | 0.02 | 0.02 | 69 | 1008.9 |
| 20260831164503 | 76 | 303 | 3.5 | 8.7 | 0.00 | 0.02 | 0.02 | 72 | 1008.8 |
| 20260831163059 | 77 | 316 | 4.3 | 11.3 | 0.00 | 0.02 | 0.02 | 71 | 1008.4 |
| 20260831161555 | 77 | 329 | 4.3 | 9.6 | 0.00 | 0.02 | 0.02 | 70 | 1007.8 |
| 20260831160053 | 77 | 311 | 4.3 | 9.6 | 0.00 | 0.02 | 0.02 | 70 | 1007.6 |
| 20260831154616 | 77 | 327 | 4.3 | 7.0 | 0.00 | 0.02 | 0.02 | 73 | 1007.3 |
| 20260831153052 | 76 | 346 | 2.6 | 7.0 | 0.00 | 0.02 | 0.02 | 77 | 1007.5 |
| 20260831151607 | 75 | 319 | 4.3 | 8.7 | 0.00 | 0.02 | 0.02 | 79 | 1007.5 |
| 20260831150050 | 73 | 330 | 2.6 | 5.2 | 0.00 | 0.02 | 0.02 | 82 | 1007.2 |
| 20260831144549 | 73 | 321 | 1.7 | 3.5 | 0.00 | 0.02 | 0.02 | 85 | 1007.0 |
| 20260831143051 | 72 | 306 | 0.9 | 1.7 | 0.00 | 0.02 | 0.02 | 87 | 1006.9 |
| 20260831141548 | 71 | 96 | 0.0 | 4.3 | 0.00 | 0.02 | 0.02 | 87 | 1006.8 |